Weather History for KBJI - May, 2013

Change the Weather History Date:

Thursday, May 16, 2013

  Actual Average Record
Temperature  
Mean Temperature 55 °F -  
Max Temperature 73 °F 66 °F 87 °F (1972)
Min Temperature 37 °F 39 °F 23 °F (1952)
Degree Days  
Heating Degree Days 10    
Growing Degree Days 5 (Base 50)    
Moisture  
Dew Point 35 °F    
Average Humidity 43    
Maximum Humidity 87    
Minimum Humidity 23    
Precipitation  
Precipitation 0.00 in - - ()
Sea Level Pressure  
Sea Level Pressure 29.95 in    
Wind  
Wind Speed 4 mph (ENE)    
Max Wind Speed 13 mph    
Max Gust Speed 20 mph    
Visibility 10 miles    
Events Rain    
Averages and records for this station are not official NWS values.
T = Trace of Precipitation, MM = Missing Value Source: NWS Daily Summary

Daily Weather History Graph

Daily Weather History Graph

Search for Another Location

Airport or City:

Trip Planner

Search our weather history database for the weather conditions in past years. The results will help you decide how hot, cold, wet, or windy it might be!

Date:

Astronomy

May. 16, 2013 Rise Set
Actual Time 5:41 AM CDT 8:51 PM CDT
Civil Twilight 5:04 AM CDT 9:28 PM CDT
Nautical Twilight 4:16 AM CDT 10:16 PM CDT
Astronomical Twilight 3:17 AM CDT 11:17 PM CDT
Moon 11:23 AM CDT (5/16) 1:06 AM CDT (5/16)
Length of Visible Light 16h 24m
Length of Day
15h 10m
Waxing Crescent, 36% of the Moon is Illuminated
May 16
Waxing Crescent
May 17
First Quarter
May 24
Full
May 31
Last Quarter
Jun 8
New

Hourly Weather History & Observations

Time (CDT) Temp. Windchill Dew Point Humidity Pressure Visibility Wind Dir Wind Speed Gust Speed Precip Events Conditions
12:12 AM 57.6 °F - 37.8 °F 48% 29.88 in 10.0 mi Calm Calm - N/A   Overcast
12:32 AM 54.9 °F - 37.9 °F 53% 29.89 in 10.0 mi Calm Calm - N/A   Overcast
12:53 AM 51.1 °F - 38.5 °F 62% 29.89 in 10.0 mi Calm Calm - N/A   Scattered Clouds
1:12 AM 49.6 °F - 37.8 °F 64% 29.90 in 10.0 mi Calm Calm - N/A   Clear
1:32 AM 46.8 °F - 37.6 °F 70% 29.90 in 10.0 mi Calm Calm - N/A   Clear
1:53 AM 47.8 °F - 36.7 °F 65% 29.90 in 10.0 mi NE 5.8 mph - N/A   Clear
2:12 AM 50.9 °F - 35.8 °F 56% 29.91 in 10.0 mi NE 3.5 mph - N/A   Clear
2:32 AM 50.2 °F - 35.8 °F 58% 29.91 in 10.0 mi Calm Calm - N/A   Clear
2:52 AM 50.0 °F - 35.1 °F 57% 29.91 in 10.0 mi Calm Calm - N/A   Clear
3:12 AM 44.8 °F 43.3 °F 34.9 °F 68% 29.91 in 10.0 mi NNE 3.5 mph - N/A   Clear
3:32 AM 46.6 °F - 34.0 °F 62% 29.92 in 10.0 mi Calm Calm - N/A   Clear
3:52 AM 46.0 °F - 34.7 °F 65% 29.93 in 10.0 mi Calm Calm - N/A   Clear
4:12 AM 42.8 °F - 34.0 °F 71% 29.93 in 10.0 mi Calm Calm - N/A   Clear
4:32 AM 43.0 °F - 34.7 °F 73% 29.93 in 10.0 mi Calm Calm - N/A   Clear
4:52 AM 40.6 °F - 33.4 °F 75% 29.94 in 10.0 mi Calm Calm - N/A   Clear
5:12 AM 39.9 °F - 33.6 °F 78% 29.94 in 10.0 mi Calm Calm - N/A   Clear
5:32 AM 37.2 °F - 32.0 °F 81% 29.94 in 10.0 mi Calm Calm - N/A   Clear
5:52 AM 39.0 °F - 33.3 °F 80% 29.96 in 10.0 mi Calm Calm - N/A   Clear
6:12 AM 38.3 °F - 32.7 °F 80% 29.95 in 10.0 mi Calm Calm - N/A   Clear
6:32 AM 37.9 °F - 34.3 °F 87% 29.96 in 10.0 mi Calm Calm - N/A   Clear
6:52 AM 42.3 °F - 36.7 °F 81% 29.95 in 10.0 mi Calm Calm - N/A   Clear
7:12 AM 47.5 °F - 37.8 °F 69% 29.96 in 10.0 mi Calm Calm - N/A   Clear
7:32 AM 51.6 °F - 36.5 °F 56% 29.96 in 10.0 mi Calm Calm - N/A   Clear
7:52 AM 54.5 °F - 34.3 °F 47% 29.96 in 10.0 mi East 5.8 mph - N/A   Clear
8:13 AM 56.1 °F - 32.9 °F 41% 29.97 in 10.0 mi East 5.8 mph - N/A   Clear
8:32 AM 57.7 °F - 32.4 °F 38% 29.97 in 10.0 mi East 5.8 mph - N/A   Clear
8:52 AM 59.2 °F - 32.0 °F 36% 29.97 in 10.0 mi SE 6.9 mph - N/A   Clear
9:12 AM 60.6 °F - 32.2 °F 34% 29.98 in 10.0 mi ESE 6.9 mph - N/A   Clear
9:32 AM 61.7 °F - 32.2 °F 33% 29.98 in 10.0 mi ESE 4.6 mph - N/A   Clear
9:53 AM 63.0 °F - 32.0 °F 31% 29.98 in 10.0 mi ESE 6.9 mph - N/A   Clear
10:12 AM 63.9 °F - 32.0 °F 30% 29.97 in 10.0 mi ESE 8.1 mph - N/A   Clear
10:32 AM 65.1 °F - 32.5 °F 30% 29.97 in 10.0 mi East 5.8 mph - N/A   Clear
10:53 AM 65.7 °F - 32.0 °F 29% 29.97 in 10.0 mi SE 8.1 mph - N/A   Clear
11:12 AM 66.4 °F - 32.0 °F 28% 29.97 in 10.0 mi East 6.9 mph - N/A   Clear
11:32 AM 68.7 °F - 32.9 °F 27% 29.96 in 7.0 mi East 8.1 mph - N/A   Clear
11:53 AM 68.7 °F - 32.2 °F 26% 29.96 in 7.0 mi ESE 9.2 mph - N/A   Clear
12:12 PM 70.3 °F - 32.7 °F 25% 29.96 in 10.0 mi East 8.1 mph - N/A   Clear
12:32 PM 71.1 °F - 33.3 °F 25% 29.96 in 10.0 mi East 6.9 mph - N/A   Clear
12:52 PM 71.1 °F - 32.0 °F 24% 29.95 in 10.0 mi ESE 8.1 mph - N/A   Clear
1:32 PM 72.0 °F - 32.7 °F 24% 29.95 in 10.0 mi ESE 8.1 mph - N/A   Clear
1:52 PM 72.7 °F - 32.7 °F 23% 29.95 in 10.0 mi East 6.9 mph - N/A   Clear
2:12 PM 72.7 °F - 32.9 °F 23% 29.95 in 10.0 mi East 4.6 mph - N/A   Clear
2:32 PM 72.7 °F - 33.4 °F 24% 29.95 in 10.0 mi East 6.9 mph - N/A   Clear
2:52 PM 73.0 °F - 34.3 °F 24% 29.95 in 10.0 mi SE 8.1 mph - N/A   Clear
3:13 PM 73.8 °F - 34.2 °F 24% 29.94 in 10.0 mi ENE 5.8 mph - N/A   Clear
3:32 PM 73.9 °F - 34.5 °F 24% 29.94 in 10.0 mi East 9.2 mph - N/A   Clear
3:52 PM 73.4 °F - 34.0 °F 24% 29.94 in 10.0 mi East 6.9 mph - N/A   Clear
4:13 PM 73.4 °F - 34.7 °F 24% 29.94 in 10.0 mi ENE 5.8 mph - N/A   Clear
4:32 PM 72.3 °F - 33.6 °F 24% 29.94 in 10.0 mi ENE 4.6 mph - N/A   Scattered Clouds
4:52 PM 71.6 °F - 33.6 °F 25% 29.95 in 10.0 mi Calm Calm - N/A   Mostly Cloudy
5:12 PM 71.6 °F - 34.5 °F 26% 29.96 in 7.0 mi NNW 4.6 mph - N/A   Overcast
5:32 PM 70.5 °F - 35.6 °F 28% 29.96 in 10.0 mi ENE 6.9 mph - N/A   Overcast
5:53 PM 69.8 °F - 35.2 °F 28% 29.97 in 10.0 mi NE 12.7 mph 19.6 mph N/A   Overcast
6:13 PM 69.3 °F - 36.0 °F 29% 29.97 in 10.0 mi North 10.4 mph - N/A   Light Drizzle
6:32 PM 69.1 °F - 36.1 °F 30% 29.96 in 7.0 mi NE 6.9 mph - N/A   Overcast
6:52 PM 68.0 °F - 37.4 °F 33% 29.96 in 10.0 mi North 9.2 mph - N/A   Scattered Clouds
7:13 PM 67.3 °F - 38.1 °F 34% 29.96 in 10.0 mi NNE 10.4 mph - N/A   Scattered Clouds
7:32 PM 66.6 °F - 38.3 °F 35% 29.96 in 10.0 mi NE 9.2 mph - N/A   Scattered Clouds
7:52 PM 66.2 °F - 38.5 °F 36% 29.95 in 10.0 mi NE 6.9 mph - N/A   Mostly Cloudy
8:12 PM 65.5 °F - 38.7 °F 37% 29.95 in 10.0 mi NNE 8.1 mph - N/A   Scattered Clouds
8:32 PM 64.8 °F - 38.5 °F 38% 29.94 in 10.0 mi NE 8.1 mph - N/A   Mostly Cloudy
8:53 PM 63.9 °F - 38.3 °F 39% 29.94 in 7.0 mi NE 8.1 mph - N/A   Mostly Cloudy
9:12 PM 63.7 °F - 38.3 °F 39% 29.94 in 10.0 mi NE 6.9 mph - N/A   Overcast
9:32 PM 63.5 °F - 38.3 °F 39% 29.94 in 10.0 mi NE 9.2 mph - N/A   Overcast
9:53 PM 62.8 °F - 38.3 °F 40% 29.95 in 10.0 mi ENE 8.1 mph - N/A   Overcast
10:12 PM 62.1 °F - 38.8 °F 42% 29.95 in 10.0 mi ENE 9.2 mph - N/A Rain Light Rain
10:32 PM 61.5 °F - 39.2 °F 44% 29.96 in 10.0 mi NE 9.2 mph 16.1 mph N/A Rain Light Rain
10:52 PM 61.7 °F - 38.7 °F 43% 29.97 in 10.0 mi NE 9.2 mph - N/A   Light Drizzle
11:12 PM 61.0 °F - 37.9 °F 42% 29.97 in 10.0 mi NE 10.4 mph - N/A   Overcast
11:32 PM 61.0 °F - 36.0 °F 39% 29.96 in 10.0 mi NE 10.4 mph - N/A   Overcast
11:52 PM 60.8 °F - 34.9 °F 38% 29.96 in 10.0 mi NE 12.7 mph 17.3 mph N/A   Overcast